This is the latest recevied weather packets stored in our database for station/object NK7E. If no packets are shown the sender has not sent any weather packets the latest 10 day(s).
| Time | Temp. | Humidity | Pressure | Rain* | Wind** | Luminosity | Snow |
|---|---|---|---|---|---|---|---|
| 1778109616 | 26.11° C | 22% | 1013.4 hPa | 0 mm | - | 514 W/m² | - |
| 1778109016 | 26.11° C | 22% | 1013.5 hPa | 0 mm | - | 585 W/m² | - |
| 1778108416 | 25.56° C | 22% | 1013.5 hPa | 0 mm | - | 624 W/m² | - |
| 1778107816 | 25.56° C | 22% | 1013.6 hPa | 0 mm | - | 654 W/m² | - |
| 1778107216 | 25.56° C | 22% | 1013.6 hPa | 0 mm | - | 686 W/m² | - |
| 1778106616 | 25.56° C | 22% | 1013.7 hPa | 0 mm | - | 717 W/m² | - |
| 1778106016 | 25.56° C | 23% | 1013.8 hPa | 0 mm | - | 742 W/m² | - |
| 1778105416 | 25.56° C | 23% | 1013.8 hPa | 0 mm | - | 769 W/m² | - |
| 1778104816 | 25.56° C | 24% | 1014 hPa | 0 mm | - | 793 W/m² | - |
| 1778104216 | 25.56° C | 24% | 1014 hPa | 0 mm | - | 816 W/m² | - |
| 1778103616 | 25.56° C | 24% | 1014.1 hPa | 0 mm | - | 839 W/m² | - |
| 1778103016 | 25° C | 24% | 1014.2 hPa | 0 mm | - | 863 W/m² | - |
| 1778102416 | 25.56° C | 25% | 1014.3 hPa | 0 mm | - | 881 W/m² | - |
| 1778101816 | 25.56° C | 24% | 1014.3 hPa | 0 mm | - | 902 W/m² | - |
| 1778101216 | 25° C | 24% | 1014.6 hPa | 0 mm | - | 919 W/m² | - |
| 1778100616 | 24.44° C | 26% | 1014.6 hPa | 0 mm | - | 931 W/m² | - |
| 1778100016 | 25° C | 25% | 1014.8 hPa | 0 mm | - | 945 W/m² | - |
| 1778099416 | 24.44° C | 27% | 1014.8 hPa | 0 mm | - | 956 W/m² | - |
| 1778098816 | 24.44° C | 26% | 1014.9 hPa | 0 mm | - | 965 W/m² | - |
| 1778098216 | 24.44° C | 27% | 1015 hPa | 0 mm | - | 973 W/m² | - |
| 1778097616 | 24.44° C | 27% | 1015.1 hPa | 0 mm | - | 981 W/m² | - |
| 1778097016 | 23.89° C | 27% | 1015.3 hPa | 0 mm | - | 986 W/m² | - |
| 1778096416 | 23.89° C | 28% | 1015.3 hPa | 0 mm | - | 987 W/m² | - |
| 1778095816 | 23.89° C | 29% | 1015.6 hPa | 0 mm | - | 987 W/m² | - |
| 1778095216 | 23.33° C | 30% | 1015.7 hPa | 0 mm | - | 990 W/m² | - |
* Rain latest hour (hover to see other rain measurements)
** Current wind speed in m/s (hover to see current wind gust speed)